Regional Weather Roundup
Issued by NWS

Home | Current Version | Previous Version | Text Only | Print | Product List | Glossary Off
Versions: 1 2 3 4 5 6 7 8 9 10 11 12 13 14 15 16 17 18 19 20 21 22 23 24 25 26 27 28 29 30 31 32 33 34 35 36 37 38 39 40 41 42 43 44 45 46 47 48 49 50

000
ASUS43 KOAX 241302
RWRNE

WEATHER ROUNDUP FOR NEBRASKA
NATIONAL WEATHER SERVICE OMAHA NE
700 AM CST FRI FEB 24 2017

NOTES: SATELLITE DATA IS BEING USED TO AUGMENT CLOUD COVER ABOVE
       12000 FEET.
       "FAIR" INDICATES FEW OR NO CLOUDS BELOW 12,000 FEET WITH NO
       SIGNIFICANT WEATHER AND/OR OBSTRUCTIONS TO VISIBILITY.

  * THESE STATIONS DO NOT REPORT WEATHER SUCH AS RAIN...SNOW OR FOG.

NEZ001>004-019>022-054>056-241400-
NEBRASKA PANHANDLE

CITY           SKY/WX    TMP DP  RH WIND       PRES   REMARKS
SCOTTSBLUFF    CLOUDY    20  15  81 N10       29.94R WCI   9
ALLIANCE       CLOUDY    19  16  88 N13       29.92R FOG     WCI   6
CHADRON        LGT SNOW  22  19  89 N6        30.00R FOG     WCI  14
KIMBALL        LGT SNOW  18  17  96 N13       29.89R WCI   5
SIDNEY         LGT SNOW  19  15  84 N12       29.90R FOG     WCI   7
$$

NEZ057>060-069>072-079>082-241400-
SOUTHWEST NEBRASKA

CITY           SKY/WX    TMP DP  RH WIND       PRES   REMARKS
NORTH PLATTE   CLOUDY    24  19  81 N20G29    29.89R HAZE    WCI  10
IMPERIAL       LGT SNOW  22  18  85 N22       29.90R FOG     WCI   6
LEXINGTON      LGT SNOW  24  20  87 N23G32    29.85R WCI   8
MCCOOK         LGT SNOW  24  21  88 N23G33    29.86R FOG     WCI   9
OGALLALA       CLOUDY    25  20  82 N20G30    29.91R WCI  11
$$

NEZ005>010-023>029-035>040-094-241400-
NORTH CENTRAL NEBRASKA

CITY           SKY/WX    TMP DP  RH WIND       PRES   REMARKS
VALENTINE      CLOUDY    19  14  81 N20G26    29.99R WCI   3
AINSWORTH      CLOUDY    19  17  93 N23G31    29.95R FOG     WCI   2
BROKEN BOW     FOG       22  20  92 N29G35    29.86R VSB 1   WCI   4
O`NEILL        CLOUDY    20  17  90 N21G29    29.92R WCI   4
ORD            FOG       21  17  84 N24       29.85S VSB 3/4 WCI   4
THEDFORD       LGT SNOW  23  20  90 N20G26    29.92R WCI   8
$$

NEZ041-046>049-061>064-073>077-083>087-241400-
SOUTH CENTRAL NEBRASKA

CITY           SKY/WX    TMP DP  RH WIND       PRES   REMARKS
GRAND ISLAND   CLOUDY    22  21  96 N26G36    29.79R FOG     WCI   5
AURORA         LGT SNOW  24  23  95 N21G30    29.78R WCI   9
HASTINGS       LGT SNOW  24  21  88 N23G31    29.79R FOG     WCI   9
HEBRON         LGT SNOW  28  27  94 N17G24    29.75R WCI  16
HOLDREGE       LGT SNOW  23  21  91 N16G22    29.82R WCI  10
KEARNEY *      CLOUDY   N/A N/A N/A N25G33    29.81R
YORK           LGT SNOW  25  25 100 N30G36    29.75R WCI   8
$$

NEZ011>018-030>034-042>045-241400-
NORTHEAST NEBRASKA

CITY           SKY/WX    TMP DP  RH WIND       PRES   REMARKS
NORFOLK        FOG       23  20  88 N18G31    29.81R VSB 3/4 WCI   9
ALBION         LGT SNOW  23  19  83 N21G31    29.82R WCI   8
BLAIR          MIX PCPN  28  26  93 N20G31    29.69R WCI  14
FREMONT        LGT SNOW  27  26  96 N14G23    29.74R WCI  15
TEKAMAH        FOG       26  24  92 N32G40    29.75R VSB 1   WCI   9
WAYNE          CLOUDY    24  23  94 N20G26    29.82R WCI  10
$$

NEZ050>053-065>068-078-088>093-241400-
SOUTHEAST NEBRASKA

CITY           SKY/WX    TMP DP  RH WIND       PRES   REMARKS
LINCOLN        LGT SNOW  28  26  92 N29G38    29.72R FOG     WCI  12
OMAHA EPPLEY   FRZ RAIN  30  26  85 N21G32    29.69R FOG     WCI  17
BEATRICE       CLOUDY    31  30  96 N22       29.69R WCI  18
FALLS CITY     CLOUDY    35  33  92 N10       29.62R WCI  27
NEBRASKA CITY  LGT SNOW  32  32 100 N14       29.65R WCI  22
PLATTSMOUTH    CLOUDY    31  27  86 N12G17    29.67R WCI  22
$$

NEZ044-045-051>053-067-241400-
OMAHA AREA

CITY           SKY/WX    TMP DP  RH WIND       PRES   REMARKS
OMAHA EPPLEY   FRZ RAIN  30  26  85 N21G32    29.69R FOG     WCI  17
BLAIR          MIX PCPN  28  26  93 N20G31    29.69R WCI  14
FREMONT        LGT SNOW  27  26  96 N14G23    29.74R WCI  15
MILLARD        LGT SNOW  31  28  90 NW16G24   29.71R WCI  20
OFFUTT AFB     FLURRIES  31  28  88 N15G24    29.68R WCI  20
PLATTSMOUTH    CLOUDY    31  27  86 N12G17    29.67R WCI  22
WAHOO          LGT SNOW  27  25  92 MISG      29.72R
$$




USA.gov is the U.S. government's official web portal to all federal, state and local government web resources and services.